This is the latest recevied weather packets stored in our database for station/object DK4DAX-2. If no packets are shown the sender has not sent any weather packets the latest 1 day(s).
| Time | Temp. | Humidity | Pressure | Rain* | Wind** | Luminosity | Snow |
|---|---|---|---|---|---|---|---|
| 1777980603 | 18.33° C | 70% | 1001.1 hPa | 0 mm | 0 m/s | - | - |
| 1777979703 | 18.89° C | 70% | 1001 hPa | 0 mm | 0 m/s | - | - |
| 1777978803 | 18.89° C | 69% | 1001.4 hPa | 0 mm | 0 m/s | - | - |
| 1777977903 | 18.89° C | 69% | 1001.4 hPa | 0 mm | 0 m/s | - | - |
| 1777977003 | 18.89° C | 73% | 1001.5 hPa | 0 mm | 0 m/s | - | - |
| 1777976103 | 18.33° C | 76% | 1001.4 hPa | 0 mm | 0 m/s | - | - |
| 1777975203 | 18.33° C | 80% | 1001.5 hPa | 0 mm | 0 m/s | - | - |
| 1777974303 | 17.78° C | 84% | 1001.7 hPa | 0 mm | 0 m/s | - | - |
| 1777973403 | 17.22° C | 86% | 1001.9 hPa | 0 mm | 0 m/s | - | - |
| 1777972503 | 16.67° C | 89% | 1002 hPa | 0 mm | 0 m/s | - | - |
| 1777971603 | 16.11° C | 90% | 1001.7 hPa | 0 mm | 0 m/s | - | - |
| 1777970703 | 16.11° C | 91% | 1001.8 hPa | 0 mm | 0 m/s | - | - |
| 1777969803 | 16.11° C | 92% | 1001.9 hPa | 0 mm | 0 m/s | - | - |
| 1777968903 | 15.56° C | 94% | 1001.9 hPa | 0 mm | 0 m/s | - | - |
| 1777968003 | 15.56° C | 93% | 1002 hPa | 0 mm | 0 m/s | - | - |
| 1777967103 | 15.56° C | 93% | 1002.2 hPa | 0 mm | 0 m/s | - | - |
| 1777966203 | 15.56° C | 93% | 1002.2 hPa | 0 mm | 0 m/s | - | - |
| 1777965303 | 15.56° C | 93% | 1002.1 hPa | 0 mm | 0 m/s | - | - |
| 1777964403 | 15.56° C | 94% | 1001.9 hPa | 0 mm | 0 m/s | - | - |
| 1777963502 | 15.56° C | 95% | 1002.2 hPa | 0 mm | 0 m/s | - | - |
| 1777962603 | 15.56° C | 96% | 1002.3 hPa | 0 mm | 0 m/s | - | - |
| 1777961703 | 15.56° C | 97% | 1002.1 hPa | 0 mm | 0 m/s | - | - |
| 1777960804 | 15.56° C | 98% | 1002.2 hPa | 0 mm | 0 m/s | - | - |
| 1777959903 | 15° C | 98% | 1002.3 hPa | 0 mm | 0 m/s | - | - |
| 1777959003 | 15° C | 99% | 1002.3 hPa | 0 mm | 0 m/s | - | - |
* Rain latest hour (hover to see other rain measurements)
** Current wind speed in m/s (hover to see current wind gust speed)